map of KAAT home
KAAT - Airport
Location
City:  Alturas, California, United States
Name:Alturas Municipal Airport
ICAO:KAAT
FAA LID:AAT

Details
Type:Airport (Airfield)
Use:Public/Civil
Latitude:4128'59"N (41.482972)
Longitude:12033'55"W (-120.565388)
Datum:WGS 1984
Elevation:4377 ft (1334 m)
Variation:14.10E (WMM2015 magnetic declination)
-0.11 annual change
Runways:2
Longest:4300 × 50 ft (1311 × 15 m), paved

Time
Time Zone:UTC-8 (DST-7)
Local Time:

Weather
METAR:KAAT 041355Z AUTO 00000KT 8SM FEW100 M04/M06 A3017 RMK AO2 SLP239 T10441061 TSNO

Related Locations
Nearby:
Farthest:FTU: 11093 mi / 17853 km
Tolagnaro [Maurillac Airport (Fort Dauphin Airport)], MG

Find:

   beyond  
but within

Other Information
Maps:
NOTAMs:
Links:
Sources:

  
flag of United States
flag of California
  

Sectional Chart

Flight Planning
at skyvector.com

Satellite Image

Google Maps Satellite view

 

Copyright © 2004-2016 Karl L. Swartz. All rights reserved.
The Great Circle Mapper name and logo are trademarks of the Great Circle Mapper.
All other trademarks mentioned herein belong to their respective owners.
Please see credits for attibutions and further copyright information.

  Follow gcmap on Facebook Follow gcmap on Twitter Follow gcmap on Google+ GCmap on LinkedIn

hCard Microformat

Geo Microformat